Location: Bothwell
(42.3833°S, 147.0000°E)
Time: 00:56:50
(UTC+10:00)

HuskySat-1 - Visible Passes

Search period start: 01 October 2022 23:00
Search period end: 12 October 2022 00:00
Orbit: 397 x 405 km, 51.6° (Epoch: 01 October)

Date Brightness Start Highest point End Pass type
(mag) Time Alt. Az. Time Alt. Az. Time Alt. Az.
04 Oct ? 05:50:18 10° N 05:52:24 16° NE 05:54:32 10° E visible
06 Oct ? 05:38:10 10° NNW 05:41:11 34° NE 05:44:13 10° ESE visible
07 Oct ? 04:46:42 17° NNE 04:47:31 18° NE 04:49:51 10° E visible
08 Oct ? 05:27:38 21° NW 05:29:39 78° NE 05:32:58 10° ESE visible
09 Oct ? 04:35:49 38° NE 04:35:49 38° NE 04:38:47 10° ESE visible
10 Oct ? 03:43:50 12° E 03:43:50 12° E 03:44:13 10° E visible
10 Oct ? 05:16:22 28° W 05:17:50 52° SSW 05:21:05 10° SE visible
11 Oct ? 04:24:13 54° ESE 04:24:13 54° ESE 04:26:53 10° ESE visible
11 Oct ? 05:57:33 10° WSW 06:00:14 22° SSW 06:02:57 10° SE visible
